Weather History for Roswell, NM

Change the Weather History Date:

Monday, January 20, 2014

  Actual Average Record
Temperature  
Mean Temperature 49 °F 41 °F  
Max Temperature 69 °F 56 °F 80 °F (1911)
Min Temperature 28 °F 26 °F -2 °F (1963)
Degree Days  
Heating Degree Days 16 24  
Month to date heating degree days 471 502  
Since 1 July heating degree days 1917 1912  
Cooling Degree Days 0 0  
Month to date cooling degree days 0 0  
Year to date cooling degree days 0 0  
Moisture  
Dew Point 11 °F    
Average Humidity 28    
Maximum Humidity 47    
Minimum Humidity 9    
Precipitation  
Precipitation 0.00 in 0.02 in 0.50 in (2007)
Month to date precipitation 0.00 0.24  
Year to date precipitation 0.00 0.24  
Sea Level Pressure  
Sea Level Pressure 30.10 in    
Wind  
Wind Speed 10 mph (North)    
Max Wind Speed 28 mph    
Max Gust Speed 36 mph    
Visibility 10 miles    
Events      
T = Trace of Precipitation, MM = Missing Value Source: NWS Daily Summary

Daily Weather History Graph

Daily Weather History Graph

Search for Another Location

Airport:

Trip Planner

Search our weather history database for the weather conditions in past years. The results will help you decide how hot, cold, wet, or windy it might be!

Date:

Astronomy

Jan. 20, 2014 Rise Set
Actual Time 7:00 AM MST 5:18 PM MST
Civil Twilight 6:33 AM MST 5:45 PM MST
Nautical Twilight 6:03 AM MST 6:15 PM MST
Astronomical Twilight 5:33 AM MST 6:44 PM MST
Moon 9:39 PM MST 9:16 AM MST
Length of Visible Light 11h 11m
Length of Day
10h 18m
Waning Gibbous, 82% of the Moon is Illuminated
Jan 20
Waning Gibbous
Jan 23
Last Quarter
Jan 30
New
Feb 6
First Quarter
Feb 14
Full

Hourly Weather History & Observations

Time (MST) Temp. Windchill Dew Point Humidity Pressure Visibility Wind Dir Wind Speed Gust Speed Precip Events Conditions
12:51 AM 39.0 °F 32.8 °F 12.0 °F 33% 29.94 in 10.0 mi WSW 9.2 mph - N/A   Clear
1:51 AM 41.0 °F 35.2 °F 12.0 °F 31% 29.92 in 10.0 mi SSW 9.2 mph - N/A   Clear
2:51 AM 39.9 °F - 12.0 °F 32% 29.91 in 10.0 mi Calm Calm - N/A   Clear
3:51 AM 37.0 °F 31.6 °F 12.9 °F 37% 29.93 in 10.0 mi ESE 6.9 mph - N/A   Clear
4:51 AM 30.9 °F 27.5 °F 12.0 °F 46% 29.97 in 10.0 mi SSE 3.5 mph - N/A   Clear
5:51 AM 36.0 °F 32.1 °F 12.0 °F 37% 29.99 in 10.0 mi Variable 4.6 mph - N/A   Clear
6:51 AM 32.0 °F - 12.0 °F 44% 30.00 in 10.0 mi Calm Calm - N/A   Clear
7:51 AM 35.1 °F 30.1 °F 12.9 °F 40% 30.02 in 10.0 mi SE 5.8 mph - N/A   Clear
8:51 AM 48.0 °F - 14.0 °F 26% 30.01 in 10.0 mi Calm Calm - N/A   Clear
9:34 AM 55.0 °F - 16.0 °F 22% 30.09 in 10.0 mi North 9.2 mph - N/A   Clear
9:51 AM 64.0 °F - 10.9 °F 13% 29.98 in 10.0 mi NNW 24.2 mph 31.1 mph N/A   Clear
9:58 AM 64.0 °F - 10.9 °F 13% 30.10 in 10.0 mi NNW 24.2 mph 31.1 mph N/A   Clear
10:51 AM 66.0 °F - 10.0 °F 11% 29.99 in 10.0 mi NNW 25.3 mph 29.9 mph N/A   Clear
11:51 AM 69.1 °F - 10.0 °F 10% 29.98 in 10.0 mi North 21.9 mph 29.9 mph N/A   Clear
12:51 PM 69.1 °F - 10.0 °F 10% 29.98 in 10.0 mi North 23.0 mph - N/A   Clear
1:51 PM 69.1 °F - 9.0 °F 10% 30.00 in 10.0 mi North 16.1 mph 26.5 mph N/A   Clear
2:51 PM 68.0 °F - 6.1 °F 9% 30.03 in 10.0 mi NNE 18.4 mph - N/A   Clear
3:51 PM 66.0 °F - 7.0 °F 10% 30.08 in 10.0 mi NE 19.6 mph 26.5 mph N/A   Clear
4:51 PM 61.0 °F - 8.1 °F 12% 30.15 in 10.0 mi NE 11.5 mph - N/A   Clear
5:51 PM 53.1 °F - 10.9 °F 19% 30.21 in 10.0 mi NNE 9.2 mph - N/A   Clear
6:51 PM 50.0 °F - 12.0 °F 22% 30.29 in 10.0 mi NNE 9.2 mph - N/A   Clear
7:51 PM 45.0 °F 41.2 °F 12.0 °F 26% 30.34 in 10.0 mi North 6.9 mph - N/A   Clear
8:51 PM 44.1 °F 40.1 °F 12.9 °F 28% 30.35 in 10.0 mi North 6.9 mph - N/A   Clear
9:51 PM 44.1 °F 42.5 °F 14.0 °F 30% 30.36 in 10.0 mi NNW 3.5 mph - N/A   Clear
10:51 PM 42.1 °F 37.1 °F 14.0 °F 32% 30.38 in 10.0 mi NW 8.1 mph - N/A   Clear
11:51 PM 37.0 °F 31.6 °F 14.0 °F 39% 30.38 in 10.0 mi WNW 6.9 mph - N/A   Clear